Location: *
(43.4667°N, 11.6833°E)
Time: 22:36:00
(UTC+00:00)

ATLAS 5 CENTAUR R/B - Pass Details

Date: 19 July 2019
Orbit: 569 x 1090 km, 63.4° (Epoch: 06 August)

Event Time Altitude Azimuth Distance (km) Brightness Sun altitude
Rises 23:04:16 0° 327° (NNW) 3,303 6.2 -25.7°
Reaches altitude 10° 23:06:41 10° 334° (NNW) 2,450 5.5 -25.7°
Maximum altitude 23:12:11 45° 46° (NE) 1,242 3.3 -25.8°
Enters shadow 23:16:04 22° 108° (ESE) 2,009 3.9 -25.8°
